Location: Blangy-Tronville
(49.8790°N, 2.4226°E)
Time: 07:45:16
(UTC+00:00)

BREEZE-M DEB (TANK) - Pass Details

Date: 18 November 2025
Orbit: 274 x 13343 km, 49.5° (Epoch: 06 December)

Event Time Altitude Azimuth Distance (km) Brightness Sun altitude
Rises 19:03:58 0° 260° (W) 2,413 7.2 -28.9°
Reaches altitude 10° 19:05:17 10° 259° (W) 1,804 6.3 -29.1°
Enters shadow 19:08:37 80° 231° (SW) 919 3.8 -29.6°
